TimeEDT,TemperatureF,Dew PointF,Humidity,Sea Level PressureIn,VisibilityMPH,Wind Direction,Wind SpeedMPH,Gust SpeedMPH,PrecipitationIn,Events,Conditions,WindDirDegrees,DateUTC
12:52 AM,48.0,30.9,52,30.05,10.0,West,15.0,23.0,N/A,,Overcast,280,2013-10-27 04:52:00
1:52 AM,46.9,30.9,54,30.04,10.0,WNW,6.9,-,N/A,,Overcast,290,2013-10-27 05:52:00
2:52 AM,46.0,30.9,56,30.03,10.0,West,6.9,-,N/A,,Overcast,270,2013-10-27 06:52:00
3:52 AM,46.0,30.9,56,30.02,10.0,West,9.2,16.1,N/A,,Overcast,270,2013-10-27 07:52:00
4:52 AM,46.0,32.0,58,30.02,10.0,West,8.1,-,N/A,,Overcast,280,2013-10-27 08:52:00
5:52 AM,46.0,33.1,61,30.04,10.0,West,6.9,-,N/A,,Overcast,270,2013-10-27 09:52:00
6:39 AM,46.4,33.8,62,30.06,10.0,WSW,6.9,-,N/A,,Overcast,250,2013-10-27 10:39:00
6:52 AM,45.0,33.1,63,30.04,10.0,West,6.9,-,N/A,,Overcast,260,2013-10-27 10:52:00
7:48 AM,44.6,33.8,66,30.07,10.0,West,6.9,-,N/A,,Overcast,260,2013-10-27 11:48:00
7:52 AM,45.0,33.1,63,30.06,10.0,West,6.9,-,N/A,,Overcast,260,2013-10-27 11:52:00
8:03 AM,44.6,33.8,66,30.08,10.0,West,4.6,-,N/A,,Mostly Cloudy,260,2013-10-27 12:03:00
8:25 AM,44.6,33.8,66,30.09,10.0,West,6.9,-,N/A,,Overcast,260,2013-10-27 12:25:00
8:52 AM,46.0,34.0,63,30.08,10.0,West,6.9,-,N/A,,Mostly Cloudy,260,2013-10-27 12:52:00
9:19 AM,46.4,35.6,66,30.10,10.0,West,9.2,-,N/A,,Scattered Clouds,270,2013-10-27 13:19:00
9:52 AM,48.9,35.1,59,30.08,10.0,West,10.4,-,N/A,,Partly Cloudy,260,2013-10-27 13:52:00
10:52 AM,51.1,35.1,54,30.08,10.0,West,12.7,23.0,N/A,,Clear,280,2013-10-27 14:52:00
11:52 AM,55.0,35.1,47,30.07,10.0,WNW,15.0,21.9,N/A,,Partly Cloudy,290,2013-10-27 15:52:00
12:52 PM,57.0,33.1,40,30.07,10.0,WNW,13.8,21.9,N/A,,Partly Cloudy,300,2013-10-27 16:52:00
1:52 PM,57.9,32.0,37,30.05,10.0,West,11.5,18.4,N/A,,Clear,270,2013-10-27 17:52:00
2:52 PM,59.0,30.9,35,30.03,10.0,West,13.8,18.4,N/A,,Clear,280,2013-10-27 18:52:00
3:52 PM,60.1,30.9,33,30.02,10.0,West,10.4,-,N/A,,Clear,270,2013-10-27 19:52:00
4:52 PM,61.0,32.0,34,30.02,10.0,WSW,6.9,17.3,N/A,,Clear,250,2013-10-27 20:52:00
5:52 PM,60.1,32.0,35,30.04,10.0,West,3.5,-,N/A,,Clear,280,2013-10-27 21:52:00
6:52 PM,55.9,33.1,42,30.05,10.0,West,3.5,-,N/A,,Clear,270,2013-10-27 22:52:00
7:52 PM,54.0,33.1,45,30.07,10.0,Calm,Calm,-,N/A,,Clear,0,2013-10-27 23:52:00
8:52 PM,53.1,33.1,47,30.09,10.0,Calm,Calm,-,N/A,,Clear,0,2013-10-28 00:52:00
9:52 PM,51.1,36.0,56,30.10,10.0,WSW,3.5,-,N/A,,Clear,240,2013-10-28 01:52:00
10:52 PM,50.0,37.9,63,30.11,10.0,WSW,4.6,-,N/A,,Clear,250,2013-10-28 02:52:00
11:52 PM,48.0,39.0,71,30.11,10.0,WSW,6.9,-,N/A,,Clear,250,2013-10-28 03:52:00